This is the latest recevied weather packets stored in our database for station/object IU5JAE-13. If no packets are shown the sender has not sent any weather packets the latest 10 day(s).
| Time | Temp. | Humidity | Pressure | Rain* | Wind** | Luminosity | Snow |
|---|---|---|---|---|---|---|---|
| 1777740919 | 17.78° C | 47% | 1021.2 hPa | 0 mm | - | 30 W/m² | - |
| 1777740316 | 18.33° C | 46% | 1021.1 hPa | 0 mm | - | 33 W/m² | - |
| 1777739734 | 18.33° C | 47% | 1021.2 hPa | 0 mm | - | 34 W/m² | - |
| 1777739132 | 18.89° C | 45% | 1021.3 hPa | 0 mm | - | 36 W/m² | - |
| 1777738529 | 19.44° C | 43% | 1021.3 hPa | 0 mm | - | 106 W/m² | - |
| 1777737927 | 20° C | 42% | 1021.3 hPa | 0 mm | - | 173 W/m² | - |
| 1777737324 | 20° C | 42% | 1021.4 hPa | 0 mm | - | 191 W/m² | - |
| 1777736722 | 20.56° C | 41% | 1021.4 hPa | 0 mm | - | 210 W/m² | - |
| 1777736120 | 20° C | 42% | 1021.6 hPa | 0 mm | - | 232 W/m² | - |
| 1777735517 | 20° C | 41% | 1021.6 hPa | 0 mm | - | 254 W/m² | - |
| 1777734935 | 20° C | 42% | 1021.7 hPa | 0 mm | - | 283 W/m² | - |
| 1777734332 | 19.44° C | 42% | 1021.7 hPa | 0 mm | - | 303 W/m² | - |
| 1777733730 | 20.56° C | 41% | 1021.8 hPa | 0 mm | - | 322 W/m² | - |
| 1777733128 | 20.56° C | 41% | 1021.9 hPa | 0 mm | - | 350 W/m² | - |
| 1777732525 | 19.44° C | 42% | 1022 hPa | 0 mm | - | 373 W/m² | - |
| 1777731923 | 19.44° C | 41% | 1022.1 hPa | 0 mm | - | 399 W/m² | - |
| 1777731320 | 19.44° C | 42% | 1022.2 hPa | 0 mm | - | 424 W/m² | - |
| 1777730718 | 19.44° C | 42% | 1022.3 hPa | 0 mm | - | 448 W/m² | - |
| 1777730116 | 19.44° C | 42% | 1022.4 hPa | 0 mm | - | 469 W/m² | - |
| 1777729533 | 20° C | 44% | 1022.6 hPa | 0 mm | - | 485 W/m² | - |
| 1777728931 | 19.44° C | 44% | 1022.6 hPa | 0 mm | - | 500 W/m² | - |
| 1777728328 | 19.44° C | 43% | 1022.7 hPa | 0 mm | - | 505 W/m² | - |
| 1777727726 | 20.56° C | 41% | 1022.8 hPa | 0 mm | - | 530 W/m² | - |
| 1777727124 | 21.11° C | 41% | 1022.9 hPa | 0 mm | - | 557 W/m² | - |
| 1777726521 | 20° C | 42% | 1023 hPa | 0 mm | - | 585 W/m² | - |
* Rain latest hour (hover to see other rain measurements)
** Current wind speed in m/s (hover to see current wind gust speed)